When you browse on this site, cookies collect data to enhance your experience and personalize the content and advertising you see.
Visit our Privacy Policy to learn more. By continuing to use the site, you agree to this use of cookies and data.
  • In France
  • List of Countries
  • For 7 days
  • Water Temperature
  • Weather Map
  • Weather Widgets
  • user-avatar
    Login

    Hourly Weather Xiangcheng

    Today, 31 May, Sunday

    Time Temperature Precipitation Wind Pressure Humidity
    00:00 +25°C° 0.6 mm 2 mps 749 mmHg 67%
    01:00 +24°C° 0.6 mm 2 mps 749 mmHg 71%
    02:00 +23°C° 0 mm 1 mps 749 mmHg 73%
    03:00 +23°C° 0 mm 1 mps 749 mmHg 74%
    04:00 +23°C° 0 mm 1 mps 749 mmHg 76%
    05:00 +23°C° 0 mm 1 mps 749 mmHg 78%
    06:00 +24°C° 0 mm 2 mps 749 mmHg 72%
    07:00 +26°C° 0 mm 2 mps 749 mmHg 67%
    08:00 +27°C° 0 mm 2 mps 749 mmHg 59%
    09:00 +30°C° 0 mm 2 mps 750 mmHg 52%
    10:00 +33°C° 0 mm 3 mps 750 mmHg 46%
    11:00 +35°C° 0 mm 3 mps 750 mmHg 39%
    12:00 +36°C° 0 mm 3 mps 749 mmHg 34%
    13:00 +37°C° 0 mm 3 mps 748 mmHg 29%
    14:00 +37°C° 0 mm 2 mps 748 mmHg 29%
    15:00 +38°C° 0 mm 2 mps 748 mmHg 27%
    16:00 +38°C° 0 mm 2 mps 747 mmHg 25%
    17:00 +38°C° 0 mm 2 mps 747 mmHg 22%
    18:00 +36°C° 0 mm 2 mps 747 mmHg 29%
    19:00 +34°C° 0 mm 3 mps 747 mmHg 35%
    20:00 +32°C° 0 mm 4 mps 748 mmHg 45%
    21:00 +30°C° 0.1 mm 4 mps 748 mmHg 50%
    22:00 +28°C° 0.1 mm 4 mps 749 mmHg 55%
    23:00 +27°C° 0.1 mm 4 mps 749 mmHg 60%

    Tomorrow, 1 June, Monday

    Time Temperature Precipitation Wind Pressure Humidity
    00:00 +26°C° 0 mm 3 mps 749 mmHg 61%
    01:00 +26°C° 0 mm 2 mps 749 mmHg 62%
    02:00 +25°C° 0 mm 2 mps 749 mmHg 63%
    03:00 +25°C° 0 mm 2 mps 749 mmHg 63%
    04:00 +24°C° 0 mm 2 mps 749 mmHg 64%
    05:00 +23°C° 0 mm 2 mps 749 mmHg 64%
    06:00 +25°C° 0 mm 2 mps 749 mmHg 61%
    07:00 +27°C° 0 mm 2 mps 749 mmHg 58%
    08:00 +29°C° 0 mm 3 mps 749 mmHg 55%
    09:00 +32°C° 0 mm 4 mps 749 mmHg 46%
    10:00 +35°C° 0 mm 4 mps 749 mmHg 38%
    11:00 +37°C° 0 mm 5 mps 749 mmHg 30%
    12:00 +39°C° 0 mm 5 mps 748 mmHg 28%
    13:00 +40°C° 0 mm 6 mps 747 mmHg 26%
    14:00 +41°C° 0 mm 6 mps 747 mmHg 24%
    15:00 +41°C° 0 mm 6 mps 746 mmHg 24%
    16:00 +40°C° 0 mm 6 mps 746 mmHg 24%
    17:00 +40°C° 0 mm 6 mps 745 mmHg 24%
    18:00 +38°C° 0 mm 6 mps 745 mmHg 27%
    19:00 +36°C° 0 mm 6 mps 745 mmHg 30%
    20:00 +34°C° 0 mm 5 mps 745 mmHg 33%
    21:00 +33°C° 0 mm 5 mps 745 mmHg 36%
    22:00 +33°C° 0 mm 6 mps 746 mmHg 38%
    23:00 +32°C° 0 mm 6 mps 746 mmHg 41%

    Day after tomorrow, 2 June, Tuesday

    Time Temperature Precipitation Wind Pressure Humidity
    00:00 +30°C° 0 mm 6 mps 746 mmHg 42%
    01:00 +30°C° 0 mm 5 mps 745 mmHg 44%
    02:00 +30°C° 0 mm 5 mps 745 mmHg 46%
    03:00 +29°C° 0 mm 4 mps 745 mmHg 48%
    04:00 +29°C° 0 mm 4 mps 745 mmHg 49%
    05:00 +28°C° 0 mm 3 mps 745 mmHg 51%
    06:00 +30°C° 0 mm 3 mps 746 mmHg 44%
    07:00 +31°C° 0 mm 3 mps 746 mmHg 37%
    08:00 +33°C° 0 mm 3 mps 746 mmHg 30%
    09:00 +35°C° 0 mm 3 mps 746 mmHg 23%
    10:00 +37°C° 0 mm 3 mps 746 mmHg 16%
    11:00 +39°C° 0 mm 3 mps 746 mmHg 9%
    12:00 +40°C° 0 mm 3 mps 745 mmHg 8%
    13:00 +40°C° 0 mm 3 mps 745 mmHg 7%
    14:00 +42°C° 0 mm 3 mps 744 mmHg 6%
    15:00 +41°C° 0 mm 2 mps 744 mmHg 6%
    16:00 +41°C° 0 mm 2 mps 743 mmHg 6%
    17:00 +41°C° 0 mm 2 mps 743 mmHg 6%
    18:00 +39°C° 0 mm 2 mps 743 mmHg 7%
    19:00 +36°C° 0 mm 1 mps 743 mmHg 8%
    20:00 +34°C° 0 mm 1 mps 743 mmHg 9%
    21:00 +33°C° 0 mm 1 mps 743 mmHg 11%
    22:00 +32°C° 0 mm 2 mps 744 mmHg 12%
    23:00 +31°C° 0 mm 2 mps 744 mmHg 13%

    3 June, Wednesday

    Time Temperature Precipitation Wind Pressure Humidity
    00:00 +31°C° 0 mm 3 mps 744 mmHg 18%
    01:00 +30°C° 0 mm 3 mps 744 mmHg 24%
    02:00 +30°C° 0 mm 3 mps 743 mmHg 29%
    03:00 +29°C° 0 mm 3 mps 743 mmHg 30%
    04:00 +28°C° 0 mm 3 mps 743 mmHg 32%
    05:00 +27°C° 0 mm 3 mps 743 mmHg 33%
    06:00 +29°C° 0 mm 3 mps 743 mmHg 29%
    07:00 +31°C° 0 mm 3 mps 744 mmHg 25%
    08:00 +34°C° 0 mm 3 mps 744 mmHg 21%
    09:00 +37°C° 0 mm 3 mps 744 mmHg 17%
    10:00 +40°C° 0 mm 4 mps 744 mmHg 13%
    11:00 +43°C° 0 mm 4 mps 743 mmHg 9%
    12:00 +43°C° 0 mm 4 mps 743 mmHg 8%
    13:00 +44°C° 0 mm 3 mps 742 mmHg 7%
    14:00 +45°C° 0 mm 3 mps 742 mmHg 6%
    15:00 +45°C° 0 mm 3 mps 741 mmHg 6%
    16:00 +45°C° 0 mm 2 mps 741 mmHg 6%
    17:00 +45°C° 0 mm 2 mps 741 mmHg 6%
    18:00 +42°C° 0 mm 3 mps 741 mmHg 10%
    19:00 +40°C° 0 mm 5 mps 741 mmHg 14%
    20:00 +36°C° 0 mm 6 mps 741 mmHg 18%
    21:00 +35°C° 0 mm 7 mps 742 mmHg 26%
    22:00 +34°C° 0 mm 7 mps 742 mmHg 34%
    23:00 +33°C° 0 mm 7 mps 743 mmHg 42%

    4 June, Thursday

    Time Temperature Precipitation Wind Pressure Humidity
    00:00 +32°C° 0 mm 6 mps 743 mmHg 43%
    01:00 +30°C° 0 mm 5 mps 743 mmHg 43%
    02:00 +29°C° 0 mm 5 mps 743 mmHg 44%
    03:00 +28°C° 0 mm 4 mps 743 mmHg 48%
    04:00 +27°C° 0 mm 4 mps 743 mmHg 52%
    05:00 +26°C° 0 mm 3 mps 743 mmHg 56%
    06:00 +28°C° 0 mm 3 mps 743 mmHg 50%
    07:00 +30°C° 0 mm 3 mps 743 mmHg 44%
    08:00 +33°C° 0 mm 4 mps 744 mmHg 38%
    09:00 +36°C° 0 mm 3 mps 744 mmHg 31%
    10:00 +39°C° 0 mm 3 mps 744 mmHg 24%
    11:00 +43°C° 0 mm 3 mps 744 mmHg 17%
    12:00 +44°C° 0 mm 4 mps 744 mmHg 15%
    13:00 +45°C° 0 mm 4 mps 743 mmHg 12%
    14:00 +47°C° 0 mm 4 mps 742 mmHg 10%
    15:00 +46°C° 0 mm 5 mps 742 mmHg 11%
    16:00 +46°C° 0 mm 5 mps 742 mmHg 11%
    17:00 +45°C° 0 mm 5 mps 741 mmHg 12%
    18:00 +42°C° 0 mm 5 mps 742 mmHg 16%
    19:00 +40°C° 0 mm 5 mps 742 mmHg 19%
    20:00 +37°C° 0 mm 5 mps 742 mmHg 23%
    21:00 +36°C° 0 mm 5 mps 743 mmHg 29%
    22:00 +34°C° 0 mm 4 mps 743 mmHg 35%
    23:00 +33°C° 0 mm 4 mps 744 mmHg 40%

    5 June, Friday

    Time Temperature Precipitation Wind Pressure Humidity
    00:00 +31°C° 0 mm 3 mps 744 mmHg 44%
    01:00 +30°C° 0 mm 3 mps 744 mmHg 47%
    02:00 +29°C° 0 mm 3 mps 743 mmHg 50%
    03:00 +29°C° 0 mm 3 mps 743 mmHg 53%
    04:00 +28°C° 0 mm 2 mps 743 mmHg 55%
    05:00 +27°C° 0 mm 2 mps 743 mmHg 57%
    06:00 +29°C° 0 mm 2 mps 743 mmHg 53%
    07:00 +31°C° 0 mm 1 mps 744 mmHg 50%
    08:00 +33°C° 0 mm 1 mps 744 mmHg 46%
    09:00 +35°C° 0 mm 1 mps 744 mmHg 37%
    10:00 +37°C° 0 mm 1 mps 744 mmHg 28%
    11:00 +40°C° 0 mm 2 mps 744 mmHg 20%
    12:00 +41°C° 0 mm 2 mps 744 mmHg 17%
    13:00 +43°C° 0 mm 3 mps 743 mmHg 13%
    14:00 +45°C° 0 mm 3 mps 743 mmHg 10%
    15:00 +45°C° 0 mm 4 mps 742 mmHg 10%
    16:00 +45°C° 0 mm 4 mps 742 mmHg 10%
    17:00 +46°C° 0 mm 5 mps 741 mmHg 10%
    18:00 +43°C° 0 mm 4 mps 741 mmHg 12%
    19:00 +40°C° 0 mm 4 mps 742 mmHg 15%
    20:00 +37°C° 0 mm 4 mps 742 mmHg 17%
    21:00 +37°C° 0 mm 4 mps 743 mmHg 21%
    22:00 +36°C° 0 mm 4 mps 743 mmHg 25%
    23:00 +35°C° 0 mm 4 mps 743 mmHg 29%
    Show more